sat.trackr.live / text

‹ back to catalog

STARLINK-4149

NORAD 53290 · 2022-086BA

PAYLOAD ACTIVE UNKNOWN

§ Identity

Operator
Country
US
Launch date
2022-07-24
Launch site
AFETR
Launch vehicle
Mass (kg)
RCS (m²)

Purposes: comms

External: N2YO · Heavens-Above · Gunter

§ Orbital elements

Epoch: 2026-09-19T23:10:01.678080Z

Period
95.26 min
Inclination
53.2159°
Eccentricity
0.0001145
Mean motion
15.11657187 rev/d
Perigee alt
530.4 km
Apogee alt
531.9 km
Semi-major
6,909.3 km
B*
7.9793e-4
RAAN
30.8864°
Arg perigee
108.6702°
Mean anomaly
251.4416°
Rev number
23,053

§ Raw data

STARLINK-41491 53290U 22086BA  26262.96529720  .00013455  00000+0  79793-3 0  99902 53290  53.2159  30.8864 0001145 108.6702 251.4416 15.11657187230538

JSON: /api/v1/satellites/53290 · /tle

For live sub-satellite position, see the globe view (requires WebGL).

§ Visibility from observer

Set your observer location to see the next 7 days of passes ≥ 10°. The values pass through the URL so the page stays shareable.

No JS? Fill the form by hand. The geolocation button needs JavaScript.